Temp
51 51 51 52 52 52 49 43 41 50 48 38 31 32 41 47 44 47 44 42 40 37 36 35 35 34 37 42 40 35 37 32 26 32 43 46 44 37 28 21 25 29 30 30
50 51 51 51 51 52 44 42 41 48 48 30 30 38 41 43 43 41 41 39 41 40 35 32 36 37 43 43 40 36 38 29 23 29 34 38 34 37 40 34 32 30 28 30
50 51 51 51 52 52 45 42 36 42 39 37 36 36 37 38 44 41 42 39 40 37 34 37 33 34 41 42 42 47 42 32 28 22 29 31 30 35 37 37 30 31 30 33
50 51 51 51 51 52 46 37 33 38 34 35 36 37 38 36 36 42 41 37 36 34 30 32 32 34 36 41 43 40 36 29 31 32 35 37 34 34 39 35 35 32 33 33
50 51 51 51 52 52 42 38 38 36 35 39 36 36 34 36 36 37 36 34 36 35 32 32 30 32 33 32 37 35 36 29 34 30 37 36 33 37 38 35 37 37 37 36
50 51 51 51 52 51 41 38 40 40 35 34 34 33 36 36 38 39 39 36 34 33 35 37 38 38 37 35 32 32 32 30 32 28 34 35 31 33 36 37 38 38 32 37
50 51 51 51 52 52 44 39 40 36 31 33 34 38 38 37 37 35 38 38 34 39 40 39 39 37 37 35 36 36 32 30 31 27 32 25 35 42 40 38 39 40 39 39
50 50 51 51 51 51 42 38 41 36 30 34 37 38 37 38 38 36 36 39 40 39 36 34 33 32 34 36 37 34 34 31 26 23 24 31 36 37 36 36 37 41 40 39
50 50 51 51 52 51 41 37 38 39 35 32 39 36 37 32 32 33 36 40 39 37 32 32 25 21 29 29 32 36 35 32 25 26 23 22 33 38 43 44 33 42 42 39
50 50 51 51 52 52 44 38 38 40 32 34 37 34 33 35 31 29 32 33 33 34 29 28 21 22 31 23 25 27 28 28 27 26 25 31 38 40 46 32 34 41 42 40
50 50 51 51 51 52 46 39 39 40 32 36 39 40 35 34 31 25 31 29 30 29 24 24 21 21 26 25 29 28 23 25 25 29 24 23 43 41 36 38 43 43 42 41
49 50 50 51 52 52 48 40 45 44 38 37 40 41 41 40 39 32 31 31 31 29 23 23 24 25 23 26 20 32 21 28 28 30 30 41 43 43 46 46 42 42 41 43
50 50 51 51 53 53 53 47 36 49 43 40 37 37 44 45 41 41 33 31 35 32 32 26 25 26 25 20 25 28 31 37 32 32 38 38 42 46 47 45 43 44 44 44
49 50 50 50 50 50 46 37 36 39 37 30 34 46 42 47 46 42 40 37 36 34 32 28 27 26 31 27 30 29 33 36 34 34 38 39 45 45 45 44 45 44 45 45
50 50 50 49 50 51 47 41 39 38 39 30 33 40 44 44 43 41 40 37 33 30 29 28 27 30 30 32 31 30 37 34 32 31 39 38 39 45 45 43 43 44 44 44
49 49 49 49 49 47 43 38 43 43 40 34 29 38 40 42 42 39 37 35 31 30 29 28 30 33 31 27 29 36 39 40 41 38 43 42 43 44 46 44 45 46 45 45
49 49 50 50 50 44 37 35 40 44 39 34 30 32 39 43 40 36 34 34 30 31 29 29 29 34 35 32 29 37 40 40 42 45 44 41 43 41 46 46 46 47 47 47
48 48 48 48 48 45 39 39 46 42 39 37 29 30 34 41 33 32 33 31 31 31 29 30 31 33 36 30 37 39 40 42 43 44 46 45 46 45 45 48 47 46 46 46
48 48 47 43 38 36 38 47 46 39 40 30 31 28 26 38 33 33 33 31 27 31 29 31 31 30 32 36 37 39 40 40 41 45 46 45 43 46 48 48 47 47 46 47
48 43 37 29 35 46 44 37 35 34 33 35 30 31 30 34 31 30 30 30 24 26 30 33 27 29 39 41 41 42 42 43 45 41 41 43 43 44 46 46 47 47 48 47
39 34 30 38 44 37 32 24 26 26 29 32 31 32 31 35 31 29 30 27 27 26 27 27 24 25 34 38 40 43 44 46 46 46 46 45 45 45 45 45 46 46 46 47
41 40 40 37 33 26 26 18 27 29 31 32 32 32 34 33 34 32 30 28 28 25 29 24 21 29 37 37 39 43 45 45 46 46 45 46 46 46 45 45 45 44 45 45
43 37 30 30 26 22 25 19 26 26 31 32 33 32 33 33 33 30 32 30 25 31 27 22 23 33 37 37 39 41 45 45 46 46 46 46 46 46 45 44 44 45 43 41
34 32 24 25 21 29 30 31 31 32 32 34 33 31 33 31 31 27 32 31 31 25 18 18 26 34 36 37 38 39 41 42 44 45 46 45 45 45 45 45 44 42 41 38
32 33 26 29 32 32 33 34 34 33 35 35 33 32 33 30 30 29 31 29 27 27 23 24 32 36 37 37 37 39 40 41 44 46 45 45 45 46 45 45 44 44 40 37
34 34 31 33 32 29 32 34 33 35 34 35 34 32 32 29 31 31 28 29 25 28 31 33 35 37 37 37 38 39 40 41 42 44 45 46 45 45 46 46 44 42 42 39
33 31 34 34 35 34 33 34 34 36 36 32 32 31 31 31 28 29 31 29 30 32 32 34 37 38 38 38 39 39 40 41 42 44 44 44 46 47 46 44 45 44 43 42
MSLP
1017.39 1017.15 1016.83 1016.13 1015.55 1015.56 1015.43 1016.35 1017.25 1016.25 1016.10 1017.79 1020.42 1021.84 1021.65 1021.35 1021.66 1021.33 1021.80 1022.26 1022.93 1023.50 1023.83 1024.29 1024.60 1025.16 1025.16 1024.82 1024.63 1024.77 1024.67 1024.75 1024.27 1023.08 1022.03 1021.80 1021.79 1022.55 1023.06 1023.53 1023.26 1022.41 1021.59 1021.01
1017.09 1016.84 1016.46 1015.76 1015.40 1015.70 1015.87 1017.21 1017.76 1016.63 1016.57 1019.63 1021.75 1022.24 1022.29 1022.32 1022.35 1022.74 1022.76 1023.48 1023.73 1023.94 1024.57 1025.08 1025.24 1025.39 1025.20 1025.10 1025.04 1025.14 1024.93 1025.18 1024.95 1023.62 1023.18 1022.75 1023.04 1023.11 1023.27 1023.36 1023.09 1022.26 1021.78 1021.10
1016.88 1016.53 1015.93 1015.44 1015.22 1015.58 1016.13 1018.00 1018.96 1018.81 1019.37 1020.78 1021.44 1022.46 1023.11 1023.14 1023.16 1023.51 1023.87 1024.37 1024.35 1024.70 1025.25 1025.27 1025.85 1025.95 1025.67 1025.53 1025.38 1025.10 1025.14 1025.72 1025.91 1025.78 1025.07 1024.81 1024.29 1023.61 1023.13 1022.78 1022.70 1022.24 1021.91 1021.40
1016.58 1015.85 1015.64 1015.30 1015.06 1015.41 1016.46 1018.67 1020.84 1021.03 1022.09 1022.57 1022.44 1022.58 1023.52 1023.80 1024.06 1024.17 1024.50 1025.05 1025.44 1025.67 1026.01 1026.19 1026.52 1026.50 1026.28 1025.96 1025.91 1025.77 1026.11 1026.41 1026.24 1025.66 1025.19 1024.97 1024.70 1023.98 1023.00 1022.72 1022.41 1022.14 1022.25 1022.06
1016.18 1015.70 1015.25 1014.99 1014.99 1015.49 1016.75 1018.91 1020.13 1021.63 1022.70 1022.90 1022.97 1023.61 1024.58 1024.59 1025.04 1025.21 1025.43 1025.81 1026.15 1025.96 1026.43 1026.67 1026.85 1026.97 1026.88 1027.15 1026.68 1026.80 1026.92 1026.83 1026.33 1025.67 1025.06 1024.86 1024.75 1024.21 1023.62 1022.62 1022.47 1022.38 1022.44 1022.59
1015.89 1015.47 1014.83 1014.80 1014.97 1015.30 1017.26 1018.90 1019.13 1019.79 1023.59 1023.81 1023.88 1024.71 1024.83 1025.13 1025.31 1026.12 1026.12 1026.24 1026.49 1026.71 1026.82 1026.73 1026.76 1026.91 1027.17 1027.56 1027.71 1027.66 1027.55 1027.41 1026.63 1025.93 1025.42 1025.04 1025.08 1024.88 1024.45 1024.15 1023.77 1023.54 1023.71 1024.53
1015.60 1015.29 1014.64 1014.58 1014.50 1015.11 1016.50 1017.92 1018.72 1020.82 1024.78 1024.54 1024.84 1025.01 1025.07 1025.60 1025.85 1026.32 1026.78 1026.68 1026.72 1026.86 1026.81 1027.07 1027.02 1027.26 1027.46 1027.67 1027.66 1027.87 1027.96 1027.77 1027.32 1026.69 1025.69 1025.59 1025.73 1025.42 1024.93 1024.60 1024.50 1024.59 1024.47 1024.59
1015.67 1015.17 1014.65 1014.67 1014.55 1015.14 1016.34 1017.79 1018.64 1021.21 1024.96 1025.62 1025.80 1025.77 1025.97 1026.31 1026.67 1027.02 1027.29 1027.25 1027.13 1027.04 1027.12 1027.53 1027.86 1028.27 1028.00 1027.97 1027.96 1028.07 1028.23 1028.19 1027.87 1027.41 1026.72 1026.31 1025.89 1025.92 1025.77 1025.43 1025.19 1025.35 1025.40 1025.05
1015.72 1015.32 1014.98 1015.01 1014.99 1015.35 1016.26 1018.39 1018.49 1020.30 1023.74 1026.94 1026.46 1026.53 1026.77 1027.31 1027.78 1027.94 1027.99 1027.60 1027.33 1027.31 1028.11 1028.67 1029.68 1029.91 1029.63 1029.14 1028.73 1028.51 1028.67 1028.64 1028.50 1027.85 1027.53 1027.22 1027.26 1026.39 1025.85 1025.38 1025.66 1025.95 1026.02 1025.88
1015.87 1015.64 1015.40 1015.47 1015.27 1015.37 1016.15 1019.03 1019.01 1020.29 1024.59 1027.30 1026.91 1026.86 1027.35 1027.74 1028.35 1028.91 1029.01 1028.90 1028.40 1028.35 1029.67 1030.93 1031.62 1031.41 1030.89 1030.76 1030.48 1030.01 1029.64 1029.48 1029.15 1028.40 1028.00 1027.56 1027.53 1026.58 1025.41 1025.99 1027.49 1026.56 1026.50 1026.25
1016.24 1016.02 1015.90 1015.74 1015.69 1015.82 1016.37 1019.92 1019.58 1020.32 1025.32 1027.75 1027.40 1027.31 1027.54 1027.98 1028.51 1029.42 1029.82 1029.97 1029.77 1030.42 1031.59 1032.55 1033.06 1032.67 1032.52 1032.10 1031.54 1031.28 1031.10 1030.70 1029.98 1029.07 1028.52 1028.18 1027.41 1026.74 1026.97 1027.71 1027.13 1027.00 1026.61 1026.22
1016.64 1016.47 1016.38 1016.33 1016.25 1016.34 1016.51 1020.04 1020.35 1020.50 1023.52 1027.91 1028.01 1028.05 1027.91 1027.93 1028.16 1029.12 1030.11 1030.79 1031.36 1032.01 1032.90 1033.52 1033.70 1033.68 1033.38 1033.09 1032.45 1031.74 1031.68 1031.40 1030.96 1030.27 1029.21 1028.48 1028.03 1027.73 1027.60 1027.52 1027.33 1026.93 1026.66 1026.01
1017.06 1017.10 1017.06 1017.05 1017.01 1017.02 1017.07 1020.58 1021.80 1021.55 1025.37 1027.89 1028.51 1028.76 1028.43 1028.07 1028.29 1028.22 1029.48 1030.99 1031.24 1032.12 1032.50 1033.36 1034.07 1034.43 1034.12 1033.88 1033.14 1032.51 1031.76 1031.21 1030.86 1030.23 1029.11 1028.55 1027.47 1027.28 1027.55 1027.51 1027.22 1026.77 1026.45 1025.90
1017.72 1017.82 1017.91 1018.17 1018.38 1018.84 1019.05 1021.35 1022.70 1022.67 1025.30 1028.82 1030.35 1029.32 1029.17 1029.06 1028.48 1028.54 1028.98 1030.27 1031.21 1032.08 1032.76 1033.70 1034.30 1034.35 1034.16 1033.88 1033.44 1032.89 1032.18 1031.49 1030.92 1030.07 1029.39 1028.55 1027.59 1027.16 1027.32 1026.87 1026.69 1026.33 1026.02 1025.66
1018.57 1018.69 1019.15 1019.28 1019.40 1019.67 1020.11 1021.51 1023.15 1023.17 1023.89 1028.90 1030.53 1030.30 1030.18 1029.89 1029.80 1030.13 1030.34 1030.91 1031.85 1032.90 1033.65 1034.21 1034.74 1034.49 1034.08 1033.54 1033.14 1032.66 1032.01 1031.65 1031.15 1030.35 1029.92 1029.78 1028.52 1027.49 1027.26 1027.03 1026.36 1025.93 1025.72 1025.17
1019.27 1019.61 1019.75 1019.80 1020.06 1020.11 1020.48 1022.88 1023.49 1023.70 1023.90 1026.98 1030.65 1031.25 1030.80 1030.69 1030.77 1031.21 1031.70 1031.97 1032.72 1033.47 1034.20 1034.86 1034.65 1034.27 1034.12 1033.72 1033.21 1032.53 1031.93 1031.39 1030.93 1030.11 1029.53 1029.17 1028.24 1027.49 1026.86 1026.58 1025.82 1025.27 1025.09 1024.93
1019.98 1020.28 1020.40 1020.29 1020.39 1020.65 1022.63 1024.55 1025.04 1024.60 1024.68 1027.10 1030.76 1031.63 1031.32 1031.03 1031.43 1032.05 1032.54 1032.86 1033.61 1033.93 1034.74 1035.03 1034.81 1034.13 1033.77 1033.76 1033.04 1032.06 1031.32 1030.62 1029.74 1029.18 1028.90 1028.17 1027.50 1027.03 1026.28 1025.84 1024.94 1024.40 1023.94 1023.87
1020.81 1021.08 1021.13 1021.41 1021.56 1022.43 1023.81 1024.69 1024.62 1024.80 1025.57 1027.21 1030.54 1032.22 1031.92 1031.52 1032.31 1033.06 1033.24 1033.82 1034.17 1034.75 1035.13 1035.11 1034.79 1034.14 1033.77 1033.56 1032.99 1032.05 1031.07 1029.96 1029.14 1028.74 1028.33 1027.80 1027.09 1026.64 1025.83 1025.01 1024.36 1023.74 1023.35 1023.37
1021.52 1021.74 1021.65 1021.95 1023.27 1024.78 1025.41 1025.02 1024.86 1025.03 1025.98 1028.69 1030.49 1031.87 1032.40 1032.13 1032.91 1033.33 1033.78 1034.02 1034.97 1035.30 1035.43 1035.16 1034.82 1034.66 1034.25 1033.88 1033.00 1032.13 1031.15 1030.51 1029.61 1028.45 1027.72 1027.28 1027.02 1026.31 1025.51 1024.86 1024.13 1023.79 1023.67 1023.68
1021.95 1022.06 1023.17 1025.34 1026.00 1025.63 1025.28 1025.49 1025.92 1026.91 1028.07 1029.08 1031.23 1032.01 1032.37 1032.70 1033.20 1033.97 1034.33 1034.46 1035.27 1035.64 1035.91 1035.33 1035.48 1035.14 1034.20 1033.61 1033.09 1032.33 1031.31 1030.47 1029.53 1028.36 1027.85 1027.45 1026.90 1026.50 1025.77 1025.18 1024.64 1024.09 1023.92 1024.00
1022.61 1024.05 1025.70 1026.13 1025.93 1025.93 1026.90 1028.36 1028.97 1029.84 1030.39 1030.74 1031.64 1031.80 1032.30 1032.72 1033.13 1034.04 1034.44 1034.80 1035.23 1035.67 1036.03 1035.70 1036.22 1035.51 1034.23 1033.59 1033.03 1032.18 1031.43 1030.76 1030.10 1029.61 1029.03 1028.42 1027.88 1027.12 1026.37 1025.61 1024.93 1024.42 1024.33 1024.42
1023.22 1023.94 1025.61 1026.34 1027.24 1027.96 1028.92 1030.75 1030.65 1030.53 1031.00 1031.28 1031.50 1031.90 1032.12 1032.75 1032.77 1033.59 1034.34 1034.69 1034.98 1035.63 1035.82 1036.03 1036.48 1035.48 1034.10 1033.67 1033.18 1032.35 1031.52 1030.92 1030.28 1029.70 1029.11 1028.51 1027.90 1027.37 1026.86 1026.30 1025.82 1025.49 1025.19 1025.05
1023.53 1024.56 1026.62 1027.59 1029.03 1029.59 1029.76 1030.84 1031.03 1030.83 1030.58 1030.78 1031.16 1031.95 1032.19 1032.76 1032.92 1033.91 1034.10 1034.55 1035.13 1035.39 1036.17 1036.69 1036.33 1035.05 1034.26 1033.81 1033.26 1032.65 1031.76 1031.02 1030.54 1029.87 1029.39 1028.87 1028.39 1027.85 1027.41 1027.08 1026.67 1026.32 1026.14 1026.12
1024.96 1026.37 1028.18 1028.82 1029.72 1029.42 1029.29 1029.31 1029.46 1029.70 1029.83 1030.27 1030.88 1031.83 1032.14 1032.82 1033.23 1033.84 1034.21 1034.64 1034.72 1035.46 1036.23 1036.29 1035.56 1034.78 1034.25 1033.70 1033.27 1032.95 1032.57 1031.81 1031.04 1030.64 1030.16 1029.65 1029.08 1028.72 1028.31 1027.90 1027.57 1027.28 1027.20 1027.26
1026.29 1027.01 1028.34 1028.82 1028.92 1029.11 1029.04 1029.02 1029.27 1029.65 1029.76 1030.18 1031.04 1031.69 1032.13 1032.94 1033.46 1033.76 1034.08 1034.49 1034.66 1034.99 1035.33 1035.33 1034.76 1034.44 1034.09 1033.74 1033.31 1033.07 1032.74 1032.23 1031.69 1031.06 1030.59 1030.36 1029.91 1029.47 1029.10 1028.76 1028.39 1028.14 1028.05 1028.05
1027.09 1027.81 1028.54 1028.78 1028.89 1029.34 1029.29 1029.33 1029.74 1029.81 1030.00 1030.35 1030.85 1031.80 1032.49 1033.11 1033.23 1033.64 1033.90 1034.05 1034.26 1034.52 1034.44 1034.40 1034.23 1034.14 1033.97 1033.76 1033.46 1033.09 1032.76 1032.51 1032.18 1031.81 1031.15 1030.71 1030.43 1030.29 1029.91 1029.43 1029.08 1028.84 1028.70 1028.59
1028.12 1028.52 1028.28 1028.52 1028.62 1029.17 1029.48 1029.45 1029.86 1029.87 1030.28 1031.34 1031.55 1032.13 1032.67 1032.95 1033.23 1033.62 1033.72 1033.77 1033.97 1033.94 1034.10 1033.96 1033.94 1033.80 1033.70 1033.52 1033.40 1033.26 1033.02 1032.62 1032.22 1031.94 1031.49 1030.87 1030.47 1030.29 1030.11 1029.83 1029.69 1029.48 1029.33 1029.21
Wind_Speed
12 13 14 12 10 8 5 4 4 4 3 8 3 4 3 3 5 9 6 5 5 4 6 6 4 3 1 9 4 4 3 3 4 4 6 4 4 3 4 5 5 3 1 3
11 12 13 11 7 3 3 4 0 3 5 6 3 4 5 6 5 6 4 6 5 4 3 5 3 3 3 8 7 4 4 3 4 8 7 7 5 4 6 4 2 2 2 3
12 11 12 10 5 2 4 5 4 6 7 2 7 7 4 5 5 5 6 3 5 5 6 7 4 4 3 6 6 9 2 2 3 4 5 1 7 14 12 4 2 2 1 4
11 11 12 11 6 6 5 5 1 2 2 6 6 5 3 4 5 4 7 4 5 1 3 2 3 3 5 3 9 6 4 3 4 7 11 6 5 9 12 8 7 2 2 4
11 11 11 10 4 12 6 6 6 5 3 2 6 6 3 4 3 5 4 6 4 5 4 1 2 2 1 3 5 5 5 3 4 3 4 3 1 12 10 10 8 4 2 4
11 11 11 8 6 6 4 1 2 8 4 3 4 2 3 3 6 4 5 2 4 4 2 5 5 5 1 2 3 4 4 4 4 3 8 3 3 10 10 6 14 7 12 8
11 11 10 6 11 5 4 3 5 7 4 4 3 4 5 6 3 6 3 4 2 0 4 4 6 5 2 2 3 3 4 3 2 3 5 4 1 9 6 5 16 18 16 15
10 10 10 8 10 8 6 2 5 6 6 3 7 8 6 7 6 4 3 3 2 4 1 3 4 5 3 4 4 2 1 1 2 2 1 3 2 8 7 7 10 18 17 16
9 10 10 9 11 11 7 3 1 7 9 5 3 5 3 3 2 3 3 3 4 3 4 5 4 2 3 4 8 3 3 4 3 2 2 3 4 14 13 5 3 15 17 13
10 10 10 11 14 11 8 4 4 8 9 4 3 4 4 4 3 3 3 6 8 4 4 4 3 1 2 3 5 5 5 4 5 3 2 3 9 19 11 3 6 15 12 11
10 10 10 11 12 10 6 1 3 8 7 5 6 4 4 3 3 4 3 4 6 5 6 3 1 3 2 3 3 2 2 4 3 3 3 3 11 8 6 5 10 10 11 9
11 12 13 12 14 14 8 7 4 5 10 7 0 4 3 3 4 6 4 5 2 3 5 2 2 2 3 2 2 4 3 2 2 3 3 3 3 5 7 4 8 7 9 12
15 17 19 20 18 14 17 12 2 10 11 9 7 6 8 7 4 2 7 1 4 4 2 4 2 5 2 2 3 3 5 3 1 5 1 12 13 3 3 5 8 13 11 10
19 21 22 23 24 22 13 6 2 5 7 7 4 3 6 6 11 10 6 7 6 6 3 3 3 3 1 0 2 1 3 5 6 4 3 12 1 3 13 15 14 11 9 7
19 21 21 21 21 22 15 7 4 3 8 7 3 2 5 6 9 12 10 7 6 4 4 4 2 0 2 1 0 2 3 3 3 3 11 8 15 16 17 16 16 13 8 11
16 15 12 9 7 4 5 7 6 7 4 8 5 3 3 5 7 9 8 5 5 4 4 2 0 2 2 2 2 3 6 8 9 6 9 14 19 18 18 14 13 15 10 7
20 20 21 20 17 9 7 6 3 6 2 7 5 3 4 2 5 4 4 5 3 4 2 3 1 2 3 1 2 7 13 13 13 8 7 8 6 7 15 15 17 14 11 8
17 17 18 18 19 12 7 5 7 3 6 6 6 1 3 3 3 3 3 3 3 5 2 1 2 3 1 2 12 13 15 15 9 13 9 13 14 14 15 12 11 8 3 3
11 9 8 7 9 5 2 12 6 2 6 5 4 5 4 2 1 2 3 2 4 2 3 2 3 3 4 5 13 13 15 11 13 14 7 5 7 11 11 9 9 4 1 3
7 6 6 5 3 7 5 7 6 7 6 5 4 0 3 3 1 2 2 3 1 3 2 2 4 1 4 3 6 10 13 14 14 12 16 15 14 12 13 9 7 4 2 2
5 4 3 3 6 4 6 5 6 3 5 3 2 2 5 2 4 3 1 2 0 3 4 3 3 4 4 6 6 8 11 13 13 9 7 6 7 9 9 10 9 6 2 1
4 7 5 3 6 5 9 1 3 4 4 1 5 3 4 1 3 4 2 3 2 1 1 5 3 5 5 6 6 8 11 11 17 14 14 14 12 11 8 6 9 7 6 5
3 6 6 5 4 9 5 4 1 2 3 4 3 3 3 2 4 4 3 3 1 2 4 1 5 5 6 6 5 6 9 11 12 18 17 16 14 12 11 10 9 7 7 7
5 5 5 3 3 1 2 3 4 3 5 6 5 4 3 1 4 2 4 1 2 3 3 4 4 3 6 5 3 3 7 8 10 12 15 16 15 13 11 10 9 8 9 7
5 4 3 1 2 2 1 2 4 2 4 5 4 4 4 2 4 2 3 2 2 2 5 4 3 2 3 5 5 3 4 5 6 9 11 12 15 13 11 10 8 8 6 7
4 4 4 1 4 3 3 3 4 1 3 3 4 4 4 2 4 3 3 5 4 4 3 3 2 2 2 4 5 4 2 4 4 4 5 7 10 11 11 8 9 8 7 8
3 2 3 1 4 4 2 2 2 1 4 3 3 4 2 3 3 2 2 4 3 3 2 2 3 3 1 1 1 3 5 6 6 4 4 2 3 8 11 12 11 6 6 6
Wind_Direction
311 314 313 322 341 334 53 90 47 311 52 54 35 67 89 110 3 30 55 82 70 62 29 38 75 93 315 328 302 15 326 138 299 273 312 342 55 96 97 98 308 255 264 301
310 318 315 325 341 323 117 89 203 324 85 107 66 57 60 72 42 22 57 44 45 30 55 91 65 62 304 4 29 29 331 359 349 350 3 7 23 336 352 265 219 280 315 304
313 321 324 331 344 229 81 85 54 347 43 47 102 115 58 98 41 57 67 66 59 55 34 17 91 9 329 336 357 16 90 56 130 195 239 231 314 318 321 281 220 288 340 315
320 333 329 336 336 174 92 41 175 188 57 8 81 81 77 72 43 59 33 47 50 38 87 59 54 1 333 29 1 19 64 21 333 267 265 277 296 312 24 20 326 175 60 319
331 337 336 333 328 135 78 126 131 33 71 42 61 24 40 103 110 31 13 77 25 34 96 102 157 47 55 47 336 25 -0 332 335 286 35 7 67 3 6 13 6 34 156 53
341 337 341 326 166 114 104 210 44 100 346 37 72 3 142 116 115 43 53 98 113 70 189 216 222 204 127 99 1 332 20 345 3 309 1 132 40 351 14 24 29 14 38 360
350 342 354 347 165 134 123 177 106 84 27 66 83 87 87 91 51 119 25 55 89 222 360 107 78 79 130 131 281 191 319 348 331 287 328 52 7 9 17 12 45 28 27 10
352 352 21 49 116 136 95 114 104 104 105 81 57 71 88 69 53 73 87 15 276 326 33 57 49 6 30 26 23 61 77 10 351 66 339 228 33 7 349 348 35 25 13 358
3 18 43 56 89 108 91 63 51 99 127 351 344 84 48 104 73 26 8 340 323 41 70 51 62 57 330 340 342 33 47 51 110 8 59 94 14 326 321 281 70 9 358 348
20 30 65 78 84 89 100 60 22 87 97 2 19 89 118 103 91 97 341 343 357 29 42 60 57 349 292 11 360 346 344 5 7 358 20 95 344 329 310 45 349 326 341 328
39 52 60 70 73 67 83 130 354 109 91 32 23 36 79 73 73 112 264 39 359 38 62 86 299 64 5 17 336 45 39 340 339 351 10 7 16 349 38 315 300 317 323 321
58 66 62 66 75 71 68 68 4 74 81 148 199 102 54 25 174 133 28 133 107 143 89 49 108 44 19 7 337 354 8 128 314 287 276 299 308 277 292 324 305 316 318 315
75 80 79 73 72 82 103 110 16 83 93 66 41 360 340 20 8 208 113 10 137 71 151 147 132 76 115 23 356 316 336 349 75 311 63 334 311 120 47 328 310 312 304 302
80 80 80 81 80 75 70 80 337 79 103 94 339 342 25 345 38 36 55 118 64 97 70 81 87 99 118 332 282 281 254 318 319 266 340 336 277 315 336 323 318 309 308 298
85 82 81 82 87 93 88 90 42 51 117 129 152 321 19 31 49 47 46 70 80 59 52 51 54 308 29 296 289 294 356 340 338 295 311 276 271 297 310 307 305 304 306 318
83 81 78 87 110 103 61 54 4 9 57 101 84 277 38 34 49 54 46 53 66 75 93 95 358 257 79 25 311 274 286 293 285 283 290 282 275 283 288 287 292 295 289 264
89 85 79 77 84 70 71 142 239 336 33 87 89 49 333 18 46 33 36 35 59 81 88 56 25 359 66 341 299 307 324 318 310 296 287 277 258 275 302 297 290 291 274 242
91 90 84 80 90 95 35 358 14 359 87 74 99 64 34 12 22 47 8 54 37 17 108 47 36 337 16 8 327 332 329 332 332 325 288 257 278 292 292 293 300 310 20 141
97 93 82 47 36 48 276 325 338 12 102 105 85 128 180 16 39 58 28 57 60 295 56 4 62 330 37 321 330 342 335 343 320 322 326 324 273 288 307 313 337 12 74 117
96 47 45 34 312 292 336 4 30 20 352 38 84 131 106 93 43 27 56 24 83 69 303 343 56 329 266 288 322 334 336 345 349 4 4 345 343 337 329 329 313 283 201 156
46 60 81 233 316 47 35 46 63 331 40 31 125 116 120 337 108 134 48 149 323 72 282 93 355 334 298 331 331 338 341 356 7 8 357 336 312 322 329 339 347 6 107 156
139 120 99 53 34 40 77 12 334 52 156 148 117 166 137 104 101 95 336 102 40 137 248 71 13 266 291 344 330 338 353 358 10 12 9 360 357 355 344 352 4 4 19 36
54 54 55 52 318 47 106 152 0 115 175 161 135 89 115 67 56 70 93 76 169 117 44 186 223 277 305 331 332 336 346 3 6 14 11 7 4 4 12 6 6 6 32 19
65 72 43 88 336 165 180 153 152 190 121 120 109 84 100 101 61 125 90 155 112 66 72 221 248 262 308 323 324 3 350 355 6 13 9 7 6 358 2 13 11 16 19 14
75 63 94 99 114 45 83 100 91 43 124 104 88 64 88 46 94 44 107 109 122 178 201 217 224 282 339 357 346 1 7 351 13 21 8 11 6 4 359 2 9 24 29 31
63 69 82 41 80 15 36 69 74 38 110 82 53 96 78 80 120 124 195 143 185 206 192 201 184 141 46 27 358 7 337 302 329 344 6 7 2 4 354 350 9 12 24 29
61 53 43 110 86 112 126 104 119 167 70 92 100 84 127 113 85 135 179 181 189 180 185 195 188 138 78 359 14 15 3 354 347 348 343 22 14 354 5 2 353 1 15 26